This is the latest recevied weather packets stored in our database for station/object SP3VSS-13. If no packets are shown the sender has not sent any weather packets the latest 10 day(s).
| Time | Temp. | Humidity | Pressure | Rain* | Wind** | Luminosity | Snow |
|---|---|---|---|---|---|---|---|
| 1788589087 | 16.11° C | 80% | 1000.1 hPa | - | - | - | - |
| 1788588186 | 16.11° C | 80% | 1000 hPa | - | - | - | - |
| 1788587285 | 15° C | 86% | 999.8 hPa | - | - | - | - |
| 1788586385 | 15° C | 86% | 999.7 hPa | - | - | - | - |
| 1788585483 | 15° C | 86% | 999.5 hPa | - | - | - | - |
| 1788584582 | 15° C | 86% | 999.4 hPa | - | - | - | - |
| 1788583708 | 15° C | 86% | 999.3 hPa | - | - | - | - |
| 1788582780 | 15° C | 86% | 999.1 hPa | - | - | - | - |
| 1788581880 | 16.11° C | 82% | 999 hPa | - | - | - | - |
| 1788580978 | 16.11° C | 82% | 998.8 hPa | - | - | - | - |
| 1788580077 | 16.11° C | 82% | 998.6 hPa | - | - | - | - |
| 1788579176 | 16.11° C | 82% | 998.4 hPa | - | - | - | - |
| 1788578275 | 16.11° C | 82% | 998.3 hPa | - | - | - | - |
| 1788577374 | 16.11° C | 82% | 998.1 hPa | - | - | - | - |
| 1788576473 | 16.11° C | 82% | 997.9 hPa | - | - | - | - |
| 1788575572 | 16.11° C | 82% | 997.7 hPa | - | - | - | - |
| 1788574671 | 16.67° C | 82% | 997.9 hPa | - | - | - | - |
| 1788573770 | 16.67° C | 81% | 997.7 hPa | - | - | - | - |
| 1788572870 | 16.67° C | 83% | 997.5 hPa | - | - | - | - |
| 1788571968 | 16.67° C | 84% | 997.4 hPa | - | - | - | - |
| 1788571067 | 16.67° C | 85% | 997.1 hPa | - | - | - | - |
| 1788570167 | 16.67° C | 85% | 997.3 hPa | - | - | - | - |
| 1788569266 | 16.67° C | 88% | 997.1 hPa | - | - | - | - |
| 1788568364 | 16.67° C | 88% | 996.7 hPa | - | - | - | - |
| 1788567464 | 16.67° C | 88% | 996.3 hPa | - | - | - | - |
* Rain since midnight (hover to see other rain measurements)
** Current wind speed in m/s (hover to see current wind gust speed)